Temperature
14 12 12 13 13 10 12 14 15 17 16 17 18 17 14 10 7 4 2 2 2 2 1 0 -1 -1 -2 -3 -3 -4 -5 -5 -6 -7 -7 -8 -8 -9 -10 -11 -11 -12 -12 -12
13 11 10 10 11 11 11 12 13 13 14 16 15 12 9 8 6 4 3 3 3 2 1 0 -1 -1 -2 -3 -3 -4 -5 -5 -6 -7 -7 -8 -8 -9 -9 -10 -11 -11 -11 -11
15 12 11 14 14 11 10 11 12 13 16 17 13 11 10 9 7 7 6 4 4 3 2 0 -1 -1 -2 -3 -3 -4 -5 -5 -6 -7 -7 -8 -8 -9 -9 -10 -10 -11 -11 -11
13 14 14 19 13 12 11 12 11 12 14 14 13 11 9 10 8 8 7 6 4 3 1 0 -1 -1 -2 -3 -3 -4 -5 -5 -6 -6 -7 -8 -8 -8 -9 -9 -10 -10 -11 -11
11 13 16 17 11 10 11 14 14 12 13 13 10 7 11 13 12 10 8 6 5 3 1 0 -1 -1 -2 -2 -3 -4 -5 -5 -6 -6 -7 -7 -8 -8 -9 -9 -9 -10 -11 -11
9 12 15 18 12 9 12 15 15 12 13 12 6 12 15 12 11 9 7 5 4 2 1 0 -1 -2 -2 -2 -3 -4 -4 -5 -6 -6 -7 -7 -7 -8 -8 -9 -9 -10 -10 -10
9 11 14 15 8 10 15 18 18 15 14 12 9 13 13 11 10 9 7 5 3 2 1 0 -1 -1 -2 -2 -3 -4 -4 -5 -6 -6 -7 -7 -7 -8 -8 -8 -9 -9 -10 -10
10 11 13 11 9 13 18 18 17 17 16 14 14 13 12 11 9 8 7 5 3 2 1 -0 -1 -1 -2 -2 -3 -4 -4 -5 -6 -6 -6 -7 -7 -7 -7 -8 -8 -10 -10 -10
12 14 15 11 13 15 16 17 18 17 16 15 13 13 12 11 9 8 7 5 3 2 1 -0 -1 -1 -2 -2 -3 -4 -4 -5 -5 -6 -6 -6 -6 -6 -7 -7 -8 -10 -10 -10
9 11 12 11 14 16 17 17 18 17 16 15 14 14 12 11 9 8 6 5 3 2 1 0 -0 -1 -2 -2 -3 -3 -4 -5 -5 -5 -6 -6 -6 -6 -6 -6 -8 -10 -10 -11
10 13 12 14 17 19 19 18 18 18 17 16 15 14 13 11 10 8 7 5 3 2 1 1 -0 -1 -2 -2 -3 -3 -4 -5 -5 -5 -5 -5 -5 -5 -6 -6 -7 -9 -10 -11
15 16 14 17 19 19 18 18 18 17 17 16 15 15 13 12 10 8 7 6 4 3 2 1 -0 -1 -2 -2 -3 -3 -4 -4 -5 -5 -5 -5 -5 -5 -5 -6 -6 -7 -8 -10
17 17 17 17 18 18 18 18 18 17 17 16 15 14 13 11 10 8 7 6 5 4 2 1 -0 -1 -2 -2 -3 -3 -4 -4 -5 -5 -5 -5 -5 -5 -5 -5 -6 -6 -7 -8
16 15 14 16 16 17 17 17 17 16 16 15 14 13 12 11 10 8 7 6 5 4 2 1 0 -1 -2 -2 -2 -3 -4 -4 -4 -5 -5 -5 -5 -5 -5 -5 -5 -6 -6 -7
14 14 15 16 16 16 16 16 16 16 16 16 15 13 12 12 11 9 8 6 5 3 2 1 0 -1 -1 -2 -2 -3 -3 -4 -4 -5 -5 -5 -5 -5 -5 -5 -6 -6 -6 -6
14 14 14 14 15 15 16 15 15 16 17 17 16 15 14 12 10 9 7 6 5 4 3 2 1 -0 -1 -2 -2 -3 -3 -4 -4 -5 -5 -5 -5 -5 -5 -6 -6 -6 -7 -7
12 12 13 13 13 14 15 15 15 16 16 16 17 15 13 11 10 8 7 6 5 4 3 2 2 0 -1 -2 -2 -2 -3 -4 -4 -4 -5 -5 -5 -5 -6 -6 -6 -7 -7 -7
12 12 13 13 13 13 14 15 15 14 15 15 14 13 12 11 11 10 8 6 5 3 3 2 1 -0 -1 -1 -2 -2 -3 -3 -4 -4 -5 -5 -5 -5 -6 -6 -6 -7 -7 -7
12 12 13 13 13 13 13 14 14 13 13 12 11 11 11 11 10 9 8 6 5 4 3 2 1 -0 -1 -1 -2 -2 -3 -3 -4 -4 -5 -5 -5 -5 -6 -6 -7 -7 -7 -7
12 12 12 12 12 12 12 12 12 11 11 10 10 9 9 10 9 8 7 6 6 5 5 3 1 -0 -1 -1 -2 -2 -3 -3 -4 -4 -5 -5 -5 -5 -6 -6 -7 -7 -7 -8
10 10 10 10 10 10 10 10 9 9 9 9 9 9 9 9 8 7 7 6 6 5 4 3 1 1 -0 -1 -2 -2 -2 -3 -3 -4 -4 -5 -5 -5 -6 -6 -7 -7 -7 -8
9 9 9 9 9 9 9 9 9 9 8 8 8 8 7 7 7 6 7 7 6 5 4 3 2 1 0 -1 -1 -2 -2 -3 -3 -4 -4 -5 -5 -5 -6 -6 -7 -7 -8 -8
7 7 8 8 8 8 8 9 9 8 8 7 7 7 7 7 6 6 7 5 5 5 5 3 2 1 0 -1 -1 -1 -2 -3 -3 -3 -4 -5 -5 -5 -6 -6 -7 -7 -8 -8
6 6 7 7 7 8 8 8 8 8 7 7 6 5 4 4 4 4 5 5 5 5 4 4 3 1 0 -1 -1 -1 -2 -2 -3 -3 -4 -4 -5 -5 -6 -6 -7 -7 -8 -8
5 5 5 6 6 7 7 7 7 8 7 6 5 4 3 2 1 3 3 4 4 4 4 3 2 1 0 -0 -1 -1 -1 -2 -2 -3 -4 -4 -5 -5 -6 -6 -7 -7 -8 -8
4 4 4 4 5 6 6 6 6 7 6 5 4 3 1 0 -1 -0 1 2 3 3 4 3 2 1 0 0 -0 -1 -1 -2 -3 -3 -3 -4 -5 -5 -6 -6 -7 -7 -8 -8
2 3 3 3 4 5 5 5 5 5 5 4 3 1 -0 -1 -2 -2 -1 0 1 2 3 3 2 1 1 0 -0 -1 -1 -2 -2 -3 -3 -4 -4 -5 -6 -6 -7 -7 -8 -8
Wind_Speed
7 4 4 7 11 14 15 13 12 13 13 20 18 16 12 8 8 11 14 16 16 14 12 11 9 8 6 4 4 4 5 6 7 8 10 10 11 11 12 12 13 14 15 16
5 3 6 9 15 18 18 14 17 21 21 23 18 10 8 9 10 13 16 17 17 15 13 12 11 9 7 5 4 4 5 6 7 8 9 10 11 11 12 12 13 13 14 15
4 2 5 12 13 19 11 14 13 15 14 10 7 10 11 10 12 15 16 17 18 16 14 12 11 10 8 6 4 5 5 6 7 8 9 10 11 11 12 12 13 13 14 14
4 3 9 6 3 12 11 12 17 17 16 15 13 11 10 12 13 14 15 17 17 15 13 12 11 10 8 6 5 5 6 6 7 7 9 10 11 11 12 12 12 12 13 15
3 5 10 7 6 8 10 10 15 19 20 17 3 7 9 11 14 13 15 16 15 14 14 12 12 10 9 7 6 6 6 7 7 7 9 10 11 12 12 12 12 12 13 14
4 5 9 5 5 6 4 7 8 14 16 9 3 7 7 4 10 11 11 13 13 13 13 13 12 11 9 8 7 7 6 6 7 8 9 10 11 12 12 11 12 12 13 13
9 8 11 3 7 9 5 6 4 11 12 9 10 10 1 5 8 11 13 13 14 14 13 13 12 11 10 9 8 7 5 6 8 8 9 10 11 11 11 11 12 12 13 14
9 9 12 8 12 11 8 1 3 7 9 11 14 9 5 7 10 13 14 15 15 14 13 12 13 12 11 10 8 6 6 7 8 8 8 8 10 11 10 10 11 12 12 13
13 11 4 12 12 9 4 5 6 6 8 11 12 12 10 10 12 14 15 16 15 14 14 12 13 13 12 9 8 7 6 7 7 8 8 8 9 10 9 8 9 10 11 11
9 15 12 13 16 15 13 14 15 11 10 10 14 13 13 12 13 15 16 16 16 16 15 14 14 13 11 9 8 7 6 6 6 7 7 7 7 7 7 7 8 10 10 11
11 11 10 14 19 22 20 19 19 18 15 16 15 15 14 14 15 16 16 17 16 17 16 16 15 14 12 10 9 8 7 6 6 6 6 7 6 6 7 6 8 10 9 10
14 10 11 10 6 8 14 17 17 16 15 15 16 16 15 15 15 17 18 18 17 18 17 15 15 14 13 12 11 9 7 6 4 4 5 5 6 6 5 6 10 10 11 12
19 9 11 14 9 8 13 15 14 15 16 14 14 15 15 14 15 17 18 20 21 20 18 16 15 15 14 13 12 10 8 6 4 4 4 5 5 6 7 6 6 7 10 13
19 11 11 15 17 17 17 16 12 12 14 13 12 13 14 15 16 19 21 21 20 19 18 17 16 15 15 14 13 11 9 7 6 5 4 4 4 5 5 7 7 6 7 10
20 17 19 21 20 17 13 10 11 15 14 14 13 14 17 18 20 21 19 18 18 18 18 17 17 16 15 15 14 12 9 7 6 5 4 4 4 4 5 6 6 6 7 8
15 15 18 20 25 26 22 19 21 23 19 16 17 19 19 19 18 17 18 20 22 22 20 19 18 17 16 16 14 11 9 11 8 5 5 4 4 4 4 4 5 5 6 7
16 19 21 21 27 29 28 25 24 24 19 18 19 17 17 17 17 19 20 22 21 21 20 20 19 17 17 17 15 11 9 10 11 7 5 5 4 4 3 4 4 5 5 6
28 30 29 25 25 27 27 24 21 19 18 15 13 15 19 21 23 22 21 20 19 18 19 19 18 17 17 17 14 11 10 9 8 7 6 5 5 4 3 3 4 4 5 5
26 27 27 26 25 25 24 23 18 14 12 10 14 18 21 22 21 20 21 22 23 22 20 19 24 20 18 19 17 11 11 10 9 7 6 7 6 5 4 3 3 3 4 4
20 20 21 21 20 18 20 19 14 12 10 12 15 17 19 20 19 20 22 22 21 18 18 22 22 19 18 19 20 12 12 11 10 8 7 7 6 5 5 4 3 3 3 4
18 18 17 18 19 19 18 16 14 14 11 14 18 20 19 18 20 21 21 20 19 17 21 27 21 17 17 18 21 13 13 12 11 9 9 8 7 6 5 4 3 3 3 3
15 15 16 16 16 18 15 13 13 13 12 14 17 17 16 18 21 22 22 16 18 24 20 19 18 21 23 23 16 14 14 13 11 10 9 8 8 7 6 5 4 3 3 3
16 15 15 14 14 14 15 13 12 12 13 14 16 18 18 17 17 18 19 15 16 27 22 18 23 30 31 21 15 15 15 14 12 11 10 9 8 7 6 6 5 4 3 3
16 14 13 11 10 11 13 12 9 9 11 11 12 13 15 14 15 16 10 19 25 28 19 23 32 34 31 17 16 15 14 14 13 11 11 9 9 8 7 6 5 5 4 4
14 13 12 11 11 11 11 9 8 8 9 9 10 11 12 13 11 13 13 18 27 28 18 24 33 35 24 16 16 16 14 14 13 12 11 11 10 9 8 7 6 5 5 4
13 13 12 11 11 10 9 7 7 6 6 7 7 8 10 10 10 11 12 17 23 26 19 18 23 26 19 17 17 16 14 14 15 13 12 11 11 10 9 8 9 6 5 4
13 12 11 12 11 9 8 7 7 7 7 7 8 7 9 11 11 13 15 16 18 19 17 17 19 20 18 17 16 15 14 13 13 13 12 11 10 10 10 10 8 6 6 5
Wind_Direction
267 260 233 236 216 197 209 223 237 254 261 275 289 302 299 279 231 205 197 195 195 194 191 191 194 197 202 219 245 270 287 297 306 313 316 316 317 318 320 321 322 321 321 321
267 237 228 254 239 221 225 235 244 260 272 271 280 282 265 250 222 209 204 200 198 195 192 192 193 193 197 211 232 259 277 288 296 304 307 310 313 318 320 320 321 320 318 317
256 192 281 265 234 201 204 214 212 230 247 266 264 261 265 254 221 217 209 200 197 195 193 191 189 187 193 204 219 247 267 280 288 296 303 308 312 316 319 319 317 316 316 317
273 265 245 254 125 184 208 229 219 238 258 268 273 290 277 254 233 220 207 198 196 192 187 182 178 180 186 196 218 242 261 272 280 290 297 304 310 314 317 317 315 312 314 318
235 250 271 267 186 178 202 258 223 229 251 264 306 305 275 231 221 218 203 194 189 183 177 172 174 177 184 200 216 236 253 265 276 283 291 299 306 311 317 315 312 311 316 319
213 229 246 256 146 160 163 274 226 209 237 242 181 287 305 166 197 201 190 181 174 168 166 171 174 175 189 204 215 231 247 264 276 282 287 296 304 311 314 314 312 316 318 321
221 238 262 253 138 151 190 255 187 202 224 201 209 241 269 162 185 185 178 171 167 166 171 176 173 178 195 206 217 226 243 266 276 282 290 296 302 307 310 312 314 317 320 323
190 213 251 164 154 194 226 239 197 214 221 218 231 239 212 199 187 180 175 172 171 172 176 174 176 184 199 210 211 212 237 263 276 284 290 291 301 307 311 316 319 321 323 327
197 215 277 172 205 229 282 257 241 230 229 223 237 238 221 207 195 188 182 177 177 177 176 178 183 192 204 204 196 204 230 257 275 286 290 294 302 309 316 323 324 324 328 331
233 255 250 227 242 252 247 250 261 255 243 224 233 237 218 205 195 190 187 182 179 181 184 187 189 197 206 194 188 203 228 252 272 284 294 302 305 307 315 322 324 328 334 334
239 258 286 260 237 243 250 253 258 257 245 237 235 234 216 204 198 192 188 185 183 188 192 192 189 196 199 194 191 204 223 244 264 277 290 300 306 308 311 315 323 330 332 332
241 226 223 251 227 220 235 248 247 246 248 234 225 229 213 206 199 192 188 185 187 192 194 191 189 194 195 192 193 200 214 232 253 275 291 301 308 310 301 307 325 335 337 338
252 245 240 266 268 236 246 254 246 238 241 239 224 218 209 204 196 191 189 189 191 192 192 189 189 193 192 189 191 198 206 218 240 261 284 300 310 315 320 322 323 336 346 346
245 253 269 263 263 260 255 252 250 247 244 237 223 208 204 201 194 194 195 194 191 188 189 189 190 194 189 186 190 196 201 212 228 246 265 281 293 303 311 320 326 335 344 347
241 230 242 261 270 268 259 251 248 251 246 233 214 203 198 198 199 200 195 188 184 186 189 189 193 194 185 185 189 192 195 201 212 230 246 263 272 285 300 310 316 324 333 345
244 236 240 252 261 265 263 252 250 256 249 231 216 209 205 203 201 196 189 184 184 190 190 190 194 190 181 184 187 190 195 201 206 219 231 243 249 266 290 308 318 326 337 342
247 251 247 249 255 260 261 256 251 252 247 231 221 207 198 197 197 196 193 192 193 192 189 190 190 182 180 183 185 186 186 193 203 211 221 228 233 246 270 294 311 322 331 334
246 251 253 253 255 260 264 262 256 249 244 237 208 194 196 198 201 197 191 188 191 194 193 190 182 176 180 182 184 182 181 184 190 200 208 215 222 230 247 272 297 311 326 333
251 254 258 261 261 263 267 269 266 256 242 212 201 205 206 207 204 192 183 183 188 194 194 186 180 177 180 183 179 180 181 183 188 195 202 209 215 220 228 248 277 302 318 331
264 267 269 271 273 272 273 276 278 265 231 204 205 209 212 210 199 190 186 192 197 193 179 177 178 179 180 182 178 180 182 184 188 191 195 202 207 209 214 227 252 278 302 323
275 277 277 279 282 282 280 279 275 264 234 206 208 212 212 204 194 189 190 200 201 182 173 176 177 178 179 179 179 180 182 185 188 191 194 198 201 203 206 213 227 250 280 306
285 284 283 284 286 289 289 284 273 261 239 222 218 215 207 199 194 196 202 201 183 176 173 177 179 178 178 176 179 180 182 185 187 189 192 195 197 199 201 204 212 225 250 282
293 287 283 283 283 288 291 286 273 261 247 233 225 217 211 203 194 194 201 198 179 177 176 179 179 178 176 175 179 180 183 185 187 189 191 192 195 196 196 199 205 213 231 257
293 288 283 282 286 287 287 287 272 261 254 248 237 223 212 205 204 204 196 182 180 178 180 179 177 177 175 176 178 180 183 185 186 187 187 188 190 192 195 196 201 208 219 239
287 288 287 286 288 287 283 287 286 272 264 258 247 228 217 214 207 198 189 180 178 176 178 180 178 177 175 175 178 181 183 185 184 182 184 186 188 190 193 195 199 203 211 225
282 284 286 281 278 280 286 287 285 281 268 262 251 228 217 215 208 191 184 180 178 177 175 175 177 178 177 176 178 180 181 183 184 185 185 185 188 188 191 194 197 202 207 218
273 276 279 280 278 270 267 264 265 266 252 247 248 227 213 207 202 192 183 179 179 178 176 176 176 178 176 176 177 178 178 179 181 181 182 184 185 188 189 190 192 195 200 210
Height
1571 1574 1575 1572 1573 1579 1575 1566 1563 1547 1544 1533 1529 1530 1531 1531 1530 1529 1530 1531 1533 1536 1539 1540 1541 1541 1541 1540 1539 1537 1534 1531 1527 1523 1518 1513 1507 1502 1496 1490 1484 1478 1472 1466
1572 1573 1575 1573 1566 1567 1568 1564 1558 1551 1543 1528 1527 1527 1526 1526 1524 1523 1523 1524 1528 1531 1534 1535 1536 1537 1537 1536 1535 1533 1531 1528 1524 1520 1516 1510 1505 1499 1494 1488 1482 1476 1469 1463
1564 1569 1570 1556 1541 1552 1554 1549 1547 1542 1529 1522 1524 1523 1521 1519 1517 1516 1517 1519 1521 1525 1528 1530 1532 1532 1532 1532 1531 1529 1527 1525 1521 1518 1513 1508 1503 1497 1492 1486 1480 1474 1467 1461
1566 1564 1563 1527 1535 1537 1540 1536 1535 1529 1522 1520 1519 1518 1515 1513 1511 1510 1511 1513 1516 1520 1523 1525 1527 1528 1528 1528 1527 1526 1524 1522 1519 1515 1510 1506 1500 1495 1489 1484 1478 1472 1466 1460
1571 1561 1542 1527 1532 1535 1536 1526 1520 1521 1517 1515 1515 1513 1508 1506 1505 1505 1507 1509 1512 1516 1519 1520 1522 1523 1523 1523 1523 1522 1520 1518 1516 1512 1508 1503 1498 1492 1487 1482 1476 1470 1465 1459
1574 1563 1548 1519 1526 1528 1531 1524 1509 1512 1511 1511 1513 1511 1503 1502 1502 1501 1503 1505 1508 1511 1513 1515 1517 1518 1519 1519 1519 1518 1517 1515 1512 1509 1505 1500 1495 1490 1485 1480 1474 1469 1464 1459
1567 1560 1535 1518 1524 1529 1528 1512 1505 1505 1505 1506 1506 1503 1500 1497 1497 1497 1498 1500 1503 1506 1508 1510 1512 1513 1514 1514 1514 1514 1513 1512 1509 1506 1502 1498 1493 1488 1483 1478 1473 1468 1462 1457
1555 1555 1534 1518 1522 1518 1506 1501 1501 1500 1500 1499 1497 1495 1493 1492 1492 1492 1493 1495 1497 1500 1503 1505 1507 1508 1509 1510 1510 1510 1509 1508 1506 1503 1499 1495 1491 1486 1481 1476 1470 1465 1460 1456
1529 1519 1509 1507 1504 1501 1500 1498 1496 1495 1494 1493 1490 1488 1486 1485 1485 1486 1487 1489 1491 1494 1497 1499 1501 1503 1505 1505 1506 1506 1505 1504 1502 1500 1496 1492 1488 1484 1479 1473 1468 1463 1459 1454
1521 1508 1502 1501 1499 1497 1496 1494 1491 1490 1487 1485 1482 1480 1478 1477 1477 1478 1480 1482 1485 1488 1490 1493 1496 1498 1499 1500 1501 1501 1501 1500 1499 1497 1494 1491 1486 1482 1477 1471 1466 1462 1458 1453
1509 1499 1496 1490 1489 1488 1488 1486 1484 1482 1479 1476 1474 1471 1470 1469 1469 1470 1472 1475 1478 1480 1484 1487 1490 1492 1494 1495 1496 1497 1497 1496 1495 1493 1491 1488 1485 1481 1476 1471 1466 1461 1456 1452
1490 1486 1487 1481 1482 1482 1480 1477 1475 1472 1469 1467 1465 1463 1461 1460 1461 1462 1464 1467 1469 1473 1477 1480 1483 1486 1488 1489 1491 1492 1492 1492 1492 1490 1488 1486 1483 1480 1475 1471 1466 1461 1456 1451
1478 1479 1478 1473 1474 1474 1471 1467 1464 1462 1459 1457 1455 1454 1453 1452 1452 1454 1456 1458 1461 1465 1469 1473 1476 1479 1481 1483 1485 1487 1488 1488 1488 1486 1485 1483 1481 1478 1474 1471 1466 1460 1455 1450
1470 1471 1469 1465 1464 1463 1460 1456 1454 1451 1448 1446 1445 1444 1443 1443 1443 1444 1446 1449 1454 1458 1462 1465 1469 1472 1475 1477 1479 1481 1482 1483 1483 1482 1481 1480 1478 1475 1472 1468 1464 1460 1455 1449
1460 1461 1459 1456 1454 1451 1448 1445 1442 1439 1437 1434 1433 1433 1432 1432 1432 1433 1438 1442 1446 1449 1453 1457 1461 1464 1468 1470 1473 1475 1476 1478 1478 1478 1477 1476 1475 1473 1470 1467 1463 1459 1454 1449
1450 1451 1449 1445 1441 1437 1434 1430 1427 1423 1423 1421 1420 1418 1420 1421 1422 1425 1428 1431 1434 1437 1442 1447 1452 1457 1460 1463 1466 1469 1471 1472 1473 1474 1473 1473 1472 1470 1468 1465 1461 1457 1453 1449
1442 1437 1435 1431 1427 1422 1418 1414 1411 1407 1407 1407 1406 1406 1408 1408 1410 1412 1415 1420 1425 1430 1435 1439 1444 1449 1452 1456 1459 1462 1465 1466 1468 1469 1469 1469 1469 1467 1465 1463 1460 1456 1452 1448
1424 1420 1418 1415 1411 1407 1402 1399 1397 1395 1394 1395 1395 1394 1394 1394 1394 1397 1403 1410 1416 1420 1425 1431 1436 1441 1445 1449 1453 1456 1458 1460 1462 1464 1465 1465 1465 1464 1463 1460 1458 1455 1451 1447
1410 1408 1406 1404 1401 1398 1392 1388 1386 1385 1384 1384 1383 1381 1380 1382 1384 1387 1392 1397 1401 1405 1412 1420 1427 1432 1436 1441 1445 1449 1452 1454 1456 1458 1460 1461 1461 1460 1459 1458 1456 1453 1450 1446
1404 1401 1398 1395 1392 1389 1384 1380 1377 1375 1372 1371 1369 1368 1368 1369 1371 1374 1378 1381 1385 1393 1402 1410 1416 1421 1427 1433 1438 1442 1445 1448 1450 1453 1454 1456 1456 1457 1456 1455 1453 1451 1448 1445
1396 1392 1389 1385 1381 1378 1374 1370 1367 1363 1360 1358 1356 1354 1354 1356 1358 1361 1364 1368 1376 1387 1393 1401 1406 1412 1419 1424 1429 1434 1438 1441 1444 1446 1449 1450 1452 1452 1452 1452 1450 1449 1446 1443
1388 1384 1380 1376 1372 1368 1365 1361 1356 1352 1348 1345 1342 1341 1341 1341 1343 1346 1350 1357 1366 1374 1381 1389 1396 1403 1410 1416 1421 1426 1430 1434 1437 1440 1443 1445 1447 1448 1448 1448 1447 1446 1444 1441
1381 1377 1373 1368 1364 1359 1355 1351 1347 1342 1338 1335 1332 1330 1328 1328 1330 1333 1336 1346 1355 1363 1371 1378 1386 1394 1402 1408 1413 1418 1423 1427 1430 1434 1436 1439 1441 1443 1444 1444 1444 1443 1441 1439
1373 1369 1365 1361 1356 1351 1346 1341 1338 1333 1329 1325 1323 1322 1321 1320 1320 1323 1330 1337 1345 1353 1361 1370 1378 1386 1393 1399 1405 1410 1415 1419 1423 1427 1430 1433 1436 1438 1439 1440 1440 1439 1438 1436
1364 1360 1356 1353 1348 1343 1339 1335 1330 1325 1321 1317 1314 1312 1312 1313 1315 1316 1321 1328 1336 1345 1353 1362 1371 1378 1384 1390 1397 1402 1407 1412 1417 1420 1424 1427 1430 1432 1434 1435 1436 1436 1435 1434
1355 1352 1348 1345 1341 1336 1332 1328 1323 1319 1315 1310 1306 1305 1304 1306 1308 1311 1315 1321 1328 1336 1345 1353 1361 1369 1375 1382 1389 1395 1400 1406 1410 1414 1417 1421 1424 1427 1429 1430 1431 1432 1431 1430
1343 1340 1338 1334 1331 1328 1325 1321 1317 1313 1309 1305 1302 1299 1298 1299 1302 1304 1308 1313 1320 1327 1336 1344 1352 1359 1366 1374 1381 1388 1393 1399 1403 1407 1411 1415 1418 1421 1424 1425 1427 1427 1427 1427